Weather Service Report


632 
ASUS45 KBOI 021110
RWRID 
WEATHER ROUNDUP FOR IDAHO
NATIONAL WEATHER SERVICE BOISE ID
500 AM MDT THU OCT 02 2014

NOTE: "FAIR" INDICATES FEW OR NO CLOUDS BELOW 12000 FEET
WITH NO SIGNIFICANT WEATHER AND/OR OBSTRUCTIONS TO VISIBILITY

IDZ012-014-021200-
SOUTHWEST IDAHO

  
CITY           SKY/WX    TMP DP  RH WIND       PRES   REMARKS
BOISE          CLEAR     46  35  65 SE9       30.19R                  
CALDWELL       CLEAR     43  30  61 SE3       30.20S                  
MOUNTAIN HOME  CLEAR     40  35  83 E6        30.20R                  
$$

IDZ016-017-021200-
SOUTHCENTRAL IDAHO

  
CITY           SKY/WX    TMP DP  RH WIND       PRES   REMARKS
BURLEY         CLEAR     41  32  70 SW10      30.20S                  
JEROME         CLEAR     41  31  67 S5        30.21R                  
TWIN FALLS     CLEAR     45  30  55 S15       30.20S                  
$$

IDZ019>023-021200-
SOUTHEAST IDAHO

  
CITY           SKY/WX    TMP DP  RH WIND       PRES   REMARKS
IDAHO FALLS    MOCLDY    42  32  67 SW14      30.20R                  
POCATELLO      CLEAR     45  31  58 S9        30.21R                  
REXBURG        PTCLDY    40  31  70 SW10      30.18R WCI  33          
$$

IDZ006-010-011-018-031-032-021200-
CENTRAL IDAHO MOUNTAINS

  
CITY           SKY/WX    TMP DP  RH WIND       PRES   REMARKS
MCCALL         CLOUDY    34  30  85 CALM      30.18F                  
HAILEY         PTCLDY    36  32  87 NW9       30.21S WCI  29          
STANLEY          N/A     25  23  92 CALM      30.25R                  
SALMON         CLEAR     32  28  86 CALM      30.17S                  
CHALLIS        CLEAR     35  31  85 CALM      30.19R                  
$$

IDZ002-004-006-007-026-021200-
NORTHERN IDAHO

  
CITY           SKY/WX    TMP DP  RH WIND       PRES   REMARKS
LEWISTON       CLOUDY    46  40  79 CALM      30.13R                  
LOWELL           N/A     46  42  86 S5        30.18S                  
COEUR D'ALENE  MOCLDY    39  32  75 SW3       30.08R                  
MULLAN PASS    CLOUDY    35  31  85 VRB3      30.07R                  
$$

Return to Home page


Western Regional Climate Center, wrcc@dri.edu